Flag for U.S.A. Weather past 2 weeks in Albuquerque, New Mexico, U.S.A.

Now
67 °F

Thunderstorms. Partly sunny.


Feels Like: 67 °F
Forecast: 48 / 72 °F
Wind: 24 mph from East

Location: Albuquerque International Airport

Current Time: Oct 20, 2014 at 5:09:49 PM

Latest Report: Oct 20, 2014 at 3:52 PM


Visibility: 10 mi

Pressure: 29.98 "Hg

Humidity: 41%

Dew point: 42 °F

Location of AlbuquerqueLocation

Historic Weather in Albuquerque — Graph

°F

Albuquerque temperature yesterday

Maximum temperature yesterday: 66 °F (at 12:52 PM)
Minimum temperature yesterday: 52 °F (at 6:52 AM)
Average temperature yesterday: 58 °F

Past Weeks' High & Low Weather Summary

 TemperatureHumidityPressure
High83 °F (Oct 6, 3:52 PM)93% (Oct 9, 2:52 AM)30.22 "Hg (Oct 9, 2:52 AM)
Low41 °F (Oct 13, 7:52 AM)10% (Oct 6, 2:52 PM)29.58 "Hg (Oct 12, 1:52 PM)
Average61 °F43%29.96 "Hg
* Reported Oct 5 3:52 PM — Oct 20 3:52 PM, Albuquerque, Weather by CustomWeather, © 2014

Note: Actual official high and low records may vary slightly from our data, if they occured in-between our weather recording intervals... More about our weather records

Advertising

Albuquerque weather history for previous 24 hours

 ConditionsComfort  
Time TempWeatherWind HumidityBarometerVisibility
3:52 PM
Oct 20
67 °FThunderstorms. Partly sunny.24 mph41%29.98 "Hg10 mi
2:52 PM70 °FBroken clouds.7 mph37%29.95 "Hg10 mi
1:52 PM69 °FBroken clouds.5 mph39%29.98 "Hg10 mi
12:52 PM65 °FBroken clouds.5 mph42%30.03 "Hg10 mi
11:52 AM62 °FBroken clouds.7 mph50%30.05 "Hg10 mi
10:52 AM62 °FBroken clouds.7 mph48%30.05 "Hg10 mi
9:52 AM57 °FBroken clouds.7 mph58%30.06 "Hg10 mi
8:52 AM54 °FScattered clouds.6 mph64%30.07 "Hg10 mi
7:52 AM49 °FPassing clouds.No wind77%30.08 "Hg10 mi
6:52 AM49 °FPassing clouds.No wind77%30.08 "Hg10 mi
5:52 AM49 °FPassing clouds.No wind77%30.06 "Hg10 mi
4:52 AM50 °FPassing clouds.No wind77%30.04 "Hg10 mi
3:52 AM50 °FPassing clouds.6 mph74%30.04 "Hg10 mi
2:52 AM52 °FPassing clouds.8 mph66%30.04 "Hg10 mi
1:52 AM49 °FPassing clouds.No wind69%30.03 "Hg10 mi
12:52 AM51 °FPassing clouds.No wind66%30.01 "Hg10 mi
11:52 PM
Oct 19
55 °FPassing clouds.5 mph59%30.00 "Hg10 mi
10:52 PM56 °FPassing clouds.3 mph60%29.99 "Hg10 mi
9:52 PM57 °FPassing clouds.5 mph58%30.00 "Hg10 mi
8:52 PM60 °FPassing clouds.13 mph47%29.99 "Hg10 mi
7:52 PM59 °FPassing clouds.3 mph51%30.00 "Hg10 mi
6:52 PM59 °FPassing clouds.6 mph54%30.00 "Hg10 mi
5:52 PM61 °FBroken clouds.8 mph52%30.01 "Hg10 mi
Weather by CustomWeather, © 2014

See weather overviewHow to use our weather pages